Weather History for Sault Ste Marie, MI

Change the Weather History Date:

Thursday, August 16, 2012

  Actual Average Record
Temperature  
Mean Temperature 64 °F 65 °F  
Max Temperature 71 °F 75 °F 88 °F (1935)
Min Temperature 57 °F 55 °F 37 °F (1979)
Degree Days  
Heating Degree Days 1 2  
Month to date heating degree days 2 32  
Since 1 June heating degree days 107 281  
Since 1 July heating degree days 7 101  
Cooling Degree Days 0 2  
Month to date cooling degree days 53 43  
Year to date cooling degree days 323 156  
Since 1 June cooling degree days 306 151  
Growing Degree Days 14 (Base 50)    
Moisture  
Dew Point 60 °F    
Average Humidity 79    
Maximum Humidity 90    
Minimum Humidity 67    
Precipitation  
Precipitation 0.93 in 0.10 in 1.26 in (2001)
Month to date precipitation 1.41 1.63  
Year to date precipitation 16.44 17.63  
Sea Level Pressure  
Sea Level Pressure 29.70 in    
Wind  
Wind Speed 8 mph (South)    
Max Wind Speed 23 mph    
Max Gust Speed 31 mph    
Visibility 7 miles    
Events Rain , Thunderstorm    
T = Trace of Precipitation, MM = Missing Value Source: NWS Daily Summary

Daily Weather History Graph

Daily Weather History Graph

Search for Another Location

Airport:

Trip Planner

Search our weather history database for the weather conditions in past years. The results will help you decide how hot, cold, wet, or windy it might be!

Date:

Astronomy

Aug. 16, 2012 Rise Set
Actual Time 6:37 AM EDT 8:44 PM EDT
Civil Twilight 6:04 AM EDT 9:17 PM EDT
Nautical Twilight 5:24 AM EDT 9:57 PM EDT
Astronomical Twilight 4:38 AM EDT 10:42 PM EDT
Moon 5:35 AM EDT (8/16) 7:51 PM EDT (8/16)
Length of Visible Light 15h 12m
Length of Day
14h 06m
Waning Crescent, 1% of the Moon is Illuminated
Aug 16
Waning Crescent
Aug 17
New
Aug 24
First Quarter
Aug 31
Full
Sep 8
Last Quarter

Hourly Weather History & Observations

Time (EDT) Temp. Dew Point Humidity Pressure Visibility Wind Dir Wind Speed Gust Speed Precip Events Conditions
12:55 AM 59.0 °F 48.9 °F 69% 29.88 in 10.0 mi East 4.6 mph - N/A   Clear
1:55 AM 57.9 °F 52.0 °F 81% 29.87 in 10.0 mi ENE 3.5 mph - N/A   Partly Cloudy
2:55 AM 57.9 °F 53.1 °F 84% 29.85 in 10.0 mi ENE 4.6 mph - N/A   Scattered Clouds
3:55 AM 60.1 °F 54.0 °F 80% 29.84 in 10.0 mi East 5.8 mph - N/A   Mostly Cloudy
4:55 AM 60.1 °F 55.0 °F 83% 29.82 in 10.0 mi East 5.8 mph - N/A   Overcast
5:55 AM 62.1 °F 57.9 °F 86% 29.79 in 10.0 mi East 4.6 mph - 0.00 in Rain Light Rain
6:55 AM 63.0 °F 59.0 °F 87% 29.78 in 10.0 mi East 3.5 mph - 0.00 in   Scattered Clouds
7:55 AM 64.9 °F 61.0 °F 87% 29.76 in 10.0 mi Variable 5.8 mph - N/A   Mostly Cloudy
8:55 AM 66.0 °F 61.0 °F 84% 29.73 in 10.0 mi ESE 8.1 mph - N/A   Overcast
9:55 AM 68.0 °F 62.1 °F 81% 29.71 in 10.0 mi SSE 12.7 mph 16.1 mph N/A   Scattered Clouds
10:55 AM 70.0 °F 61.0 °F 73% 29.70 in 10.0 mi SSE 10.4 mph - N/A   Overcast
11:32 AM 69.1 °F 60.1 °F 73% 29.71 in 10.0 mi SSE 10.4 mph - N/A Thunderstorm Thunderstorm
11:55 AM 66.0 °F 62.1 °F 87% 29.71 in 3.0 mi South 8.1 mph 19.6 mph 0.08 in Rain , Thunderstorm Thunderstorms and Rain
12:02 PM 66.0 °F 62.1 °F 87% 29.71 in 2.0 mi South 8.1 mph - 0.04 in Rain , Thunderstorm Thunderstorms and Rain
12:08 PM 66.0 °F 62.1 °F 87% 29.72 in 3.0 mi South 6.9 mph - 0.06 in Rain , Thunderstorm Thunderstorms and Rain
12:15 PM 66.0 °F 62.1 °F 87% 29.71 in 1.8 mi SSE 6.9 mph - 0.07 in Rain , Thunderstorm Heavy Thunderstorms and Rain
12:24 PM 64.9 °F 62.1 °F 90% 29.72 in 0.8 mi SE 6.9 mph - 0.31 in Rain , Thunderstorm Heavy Thunderstorms and Rain
12:31 PM 64.9 °F 63.0 °F 93% 29.71 in 2.0 mi SSE 6.9 mph - 0.37 in Rain , Thunderstorm Light Thunderstorms and Rain
12:38 PM 66.0 °F 62.1 °F 87% 29.71 in 5.0 mi SSE 9.2 mph - 0.37 in Rain , Thunderstorm Thunderstorms and Rain
12:50 PM 66.2 °F 62.6 °F 88% 29.70 in 4.0 mi SSE 6.9 mph - 0.39 in Rain Light Rain
12:55 PM 66.0 °F 63.0 °F 90% 29.69 in 5.0 mi SSE 10.4 mph - 0.40 in Rain Light Rain
1:09 PM 66.0 °F 63.0 °F 90% 29.69 in 8.0 mi SSE 10.4 mph - 0.00 in   Overcast
1:55 PM 66.9 °F 63.0 °F 87% 29.69 in 9.0 mi South 6.9 mph - 0.00 in   Overcast
2:16 PM 68.0 °F 64.0 °F 87% 29.68 in 10.0 mi South 6.9 mph - N/A   Mostly Cloudy
2:40 PM 68.0 °F 64.0 °F 87% 29.66 in 10.0 mi South 10.4 mph - N/A   Mostly Cloudy
2:55 PM 68.0 °F 64.0 °F 87% 29.65 in 10.0 mi South 8.1 mph - N/A   Mostly Cloudy
3:21 PM 68.0 °F 64.0 °F 87% 29.65 in 8.0 mi South 5.8 mph - 0.00 in Rain Light Rain
3:55 PM 68.0 °F 64.9 °F 90% 29.63 in 8.0 mi South 5.8 mph - 0.01 in   Overcast
4:26 PM 68.0 °F 64.9 °F 90% 29.62 in 7.0 mi South 5.8 mph - 0.00 in   Overcast
4:51 PM 69.8 °F 66.2 °F 88% 29.61 in 6.0 mi South 8.1 mph - 0.01 in Rain Light Rain
4:55 PM 68.0 °F 64.0 °F 87% 29.61 in 5.0 mi WNW 13.8 mph 19.6 mph 0.01 in Rain Light Rain
5:01 PM 63.0 °F 60.1 °F 90% 29.63 in 1.8 mi WNW 12.7 mph 20.7 mph 0.03 in Rain Heavy Rain
5:14 PM 63.0 °F 60.1 °F 90% 29.63 in 1.2 mi WNW 10.4 mph 19.6 mph 0.14 in Rain Heavy Rain
5:28 PM 63.0 °F 60.1 °F 90% 29.64 in 1.2 mi WNW 11.5 mph 21.9 mph 0.26 in Rain Heavy Rain
5:33 PM 63.0 °F 60.1 °F 90% 29.63 in 3.0 mi WNW 13.8 mph 18.4 mph 0.26 in Rain Rain
5:55 PM 63.0 °F 59.0 °F 87% 29.63 in 10.0 mi WNW 10.4 mph - 0.26 in Rain Light Rain
6:19 PM 62.1 °F 57.9 °F 86% 29.65 in 1.8 mi WNW 10.4 mph - 0.03 in Rain Heavy Rain
6:30 PM 62.1 °F 57.9 °F 86% 29.65 in 2.0 mi WNW 13.8 mph - 0.10 in Rain Rain
6:38 PM 62.1 °F 57.9 °F 86% 29.64 in 9.0 mi NW 11.5 mph 20.7 mph 0.10 in Rain Light Rain
6:55 PM 61.0 °F 57.9 °F 90% 29.64 in 5.0 mi WNW 8.1 mph 17.3 mph 0.11 in Rain Rain
7:55 PM 63.0 °F 59.0 °F 87% 29.63 in 10.0 mi WNW 11.5 mph - 0.04 in   Mostly Cloudy
8:55 PM 64.0 °F 57.9 °F 80% 29.65 in 10.0 mi WNW 8.1 mph 18.4 mph N/A   Overcast
9:55 PM 63.0 °F 55.9 °F 78% 29.67 in 10.0 mi WNW 6.9 mph - 0.00 in   Overcast
10:55 PM 63.0 °F 54.0 °F 72% 29.66 in 10.0 mi WNW 9.2 mph 18.4 mph N/A   Mostly Cloudy
11:55 PM 60.1 °F 53.1 °F 78% 29.68 in 10.0 mi WNW 11.5 mph 23.0 mph 0.02 in   Overcast